Weather reports worldwide

Advertisment
Don Benito, Spain (8333): temperature & dewpoint: 19.08.2019 08:00:00 - 25.08.2019 08:00:00 (CEST)Don Benito, Spain (8333): wind speed & gusts: 19.08.2019 08:00:00 - 25.08.2019 08:00:00 (CEST)Don Benito, Spain (8333): wind direction: 19.08.2019 08:00:00 - 25.08.2019 08:00:00 (CEST)Don Benito, Spain (8333): reduced air pressure: 19.08.2019 08:00:00 - 25.08.2019 08:00:00 (CEST)Don Benito, Spain (8333): visibility: 19.08.2019 08:00:00 - 25.08.2019 08:00:00 (CEST)Don Benito, Spain (8333): sunshine duration: 19.08.2019 08:00:00 - 25.08.2019 08:00:00 (CEST)Don Benito, Spain (8333): precipitation: 19.08.2019 08:00:00 - 25.08.2019 08:00:00 (CEST)
Date & Time tt [°C] td [°C] ff [km/h] ff [kn] fx [km/h] fx [kn] dd ppp [hPa] vv [km] sd [min] rr [mm]
25.08.2019 08:00:00 - - - - - - - - - - -
25.08.2019 07:00:00 21,3 9,6 3 2 12 7 SSE 1014,1 20 0 0,0
25.08.2019 06:00:00 21,9 9,0 5 3 14 8 SW 1013,8 20 0 0,0
25.08.2019 05:00:00 22,8 9,2 4 2 13 7 SW 1013,4 20 0 0,0
25.08.2019 04:00:00 23,8 7,8 8 4 17 9 SW 1013,1 20 0 0,0
25.08.2019 03:00:00 25,0 6,2 3 1 15 8 SW 1013,1 20 0 0,0
25.08.2019 02:00:00 26,8 6,2 5 3 15 8 WSW 1013,1 20 0 -
25.08.2019 01:00:00 27,2 2,3 9 5 20 11 SE 1013,0 20 0 0,0
25.08.2019 00:00:00 27,6 1,9 5 3 8 4 SE 1012,8 20 0 0,0
24.08.2019 23:00:00 29,2 4,6 0 0 4 2 N 1012,7 20 0 0,0
24.08.2019 22:00:00 30,4 5,0 3 2 9 5 NNW 1012,2 20 0 0,0
24.08.2019 21:00:00 32,9 5,5 4 2 10 6 NNW 1011,9 20 31 0,0
24.08.2019 20:00:00 36,1 3,4 5 3 15 8 NNW 1011,9 20 60 -
24.08.2019 19:00:00 36,8 2,7 6 4 19 10 N 1012,2 20 60 0,0
24.08.2019 18:00:00 37,4 1,9 6 3 19 10 NNE 1012,7 20 60 0,0
24.08.2019 17:00:00 37,2 4,1 6 4 23 13 NNE 1013,0 20 60 0,0
24.08.2019 16:00:00 37,0 8,8 6 4 18 10 NE 1013,5 20 60 0,0
24.08.2019 15:00:00 36,0 8,8 5 3 22 12 ENE 1014,2 20 60 0,0
24.08.2019 14:00:00 34,2 9,4 6 4 19 11 NNE 1015,0 20 60 -
24.08.2019 13:00:00 33,6 8,3 5 3 17 9 ENE 1015,7 20 60 0,0
24.08.2019 12:00:00 31,4 10,2 5 3 13 7 ENE 1016,1 20 60 0,0
24.08.2019 11:00:00 29,5 10,0 4 2 15 8 ENE 1016,2 20 60 0,0
24.08.2019 10:00:00 25,1 8,9 5 3 13 7 ENE 1016,6 20 35 0,0
24.08.2019 09:00:00 21,8 9,9 3 2 8 4 ENE 1016,4 20 0 0,0
24.08.2019 08:00:00 22,0 9,6 4 2 16 9 NE 1016,0 20 0 -
24.08.2019 07:00:00 23,0 6,2 7 4 16 9 SE 1015,6 20 0 0,0
24.08.2019 06:00:00 22,5 7,4 5 3 10 5 SE 1015,5 20 0 0,0
24.08.2019 05:00:00 22,3 8,8 6 3 13 7 SSW 1015,4 20 0 0,0
24.08.2019 04:00:00 23,6 11,0 2 1 8 5 NE 1015,0 20 0 0,0
24.08.2019 03:00:00 24,5 10,8 4 2 14 8 NNW 1014,9 20 0 0,0
24.08.2019 02:00:00 25,8 6,4 6 4 17 9 SE 1014,8 20 0 -
24.08.2019 01:00:00 26,9 10,5 0 0 9 5 N 1014,3 20 0 0,0
24.08.2019 00:00:00 27,7 10,4 1 1 10 5 NW 1014,0 18 0 0,0
23.08.2019 23:00:00 29,2 8,3 0 0 5 3 N 1013,6 20 0 0,0
23.08.2019 22:00:00 30,8 9,7 2 1 5 3 WSW 1013,0 20 0 0,0
23.08.2019 21:00:00 33,0 8,4 3 2 11 6 WNW 1012,6 20 32 0,0
23.08.2019 20:00:00 35,7 9,3 4 2 14 8 NNW 1012,5 20 58 -
23.08.2019 19:00:00 36,3 4,5 4 2 15 8 N 1012,9 20 60 0,0
23.08.2019 18:00:00 37,2 8,1 5 3 22 12 NE 1013,1 20 60 0,0
23.08.2019 17:00:00 36,1 10,3 6 4 18 10 N 1013,5 20 60 0,0
23.08.2019 16:00:00 35,5 12,4 8 4 21 12 N 1014,2 20 60 0,0
23.08.2019 15:00:00 34,9 12,5 5 3 21 11 NNE 1015,0 20 60 0,0
23.08.2019 14:00:00 33,5 13,1 6 3 20 11 N 1015,7 20 60 -
23.08.2019 13:00:00 33,0 13,7 5 3 16 9 NE 1016,2 20 60 0,0
23.08.2019 12:00:00 30,8 14,4 5 3 19 10 E 1017,0 20 60 0,0
23.08.2019 11:00:00 28,8 13,9 6 3 16 9 ENE 1017,2 20 60 0,0
23.08.2019 10:00:00 26,1 14,2 6 3 15 8 ENE 1017,1 20 30 0,0
23.08.2019 09:00:00 23,6 13,5 4 2 11 6 E 1017,0 20 2 0,0
23.08.2019 08:00:00 23,5 12,2 1 1 11 6 N 1016,4 20 0 -
23.08.2019 07:00:00 24,3 11,9 5 3 12 6 S 1015,8 20 0 0,0
23.08.2019 06:00:00 23,6 11,9 1 1 16 9 N 1015,8 20 0 0,0
23.08.2019 05:00:00 25,6 11,8 8 4 18 10 SE 1015,2 20 0 0,0
23.08.2019 04:00:00 25,7 7,3 10 5 16 9 SSE 1015,2 20 0 0,0
23.08.2019 03:00:00 26,5 3,6 8 4 24 13 SE 1015,0 20 0 0,0
23.08.2019 02:00:00 28,2 4,5 6 4 18 10 E 1014,5 20 0 -
23.08.2019 01:00:00 29,0 5,8 6 3 21 12 ENE 1014,4 20 0 0,0
23.08.2019 00:00:00 28,1 7,8 4 2 12 6 E 1014,3 20 0 0,0
22.08.2019 23:00:00 28,8 9,0 1 1 7 4 NE 1013,9 20 0 0,0
22.08.2019 22:00:00 30,2 9,2 3 2 14 8 N 1013,5 20 0 0,0
22.08.2019 21:00:00 32,5 9,3 6 3 21 11 N 1013,0 20 33 0,0
22.08.2019 20:00:00 35,0 7,1 9 5 21 11 N 1012,7 20 60 -
22.08.2019 19:00:00 36,1 8,0 6 3 22 12 N 1012,9 20 60 0,0
22.08.2019 18:00:00 36,8 2,7 6 3 26 14 E 1013,3 20 60 0,0
22.08.2019 17:00:00 36,3 5,5 6 4 29 15 E 1013,8 20 60 0,0
22.08.2019 16:00:00 35,3 7,4 10 5 29 16 NE 1014,5 20 60 0,0
22.08.2019 15:00:00 34,2 11,3 8 5 27 15 E 1015,2 20 60 0,0
22.08.2019 14:00:00 32,9 11,4 9 5 29 16 E 1016,2 20 60 -
22.08.2019 13:00:00 31,5 13,8 11 6 24 13 ENE 1016,8 20 60 0,0
22.08.2019 12:00:00 29,8 15,2 6 3 23 12 E 1017,4 20 60 0,0
22.08.2019 11:00:00 27,6 15,3 9 5 25 13 E 1017,4 20 60 0,0
22.08.2019 10:00:00 25,2 15,3 9 5 21 12 E 1017,8 20 32 0,0
22.08.2019 09:00:00 22,9 15,4 4 2 16 9 ENE 1017,6 20 5 0,0
22.08.2019 08:00:00 22,5 15,6 5 3 14 8 NE 1017,0 20 0 -
22.08.2019 07:00:00 23,2 15,3 6 3 20 11 ENE 1016,6 20 0 0,0
22.08.2019 06:00:00 23,8 15,5 5 3 22 12 ENE 1016,4 20 0 0,0
22.08.2019 05:00:00 24,7 15,6 10 5 30 16 ENE 1016,2 20 0 0,0
22.08.2019 04:00:00 25,1 13,4 7 4 20 11 E 1016,2 20 0 0,0
22.08.2019 03:00:00 25,3 7,0 5 3 18 10 E 1016,1 20 0 0,0
22.08.2019 02:00:00 25,5 8,0 5 3 16 9 ENE 1016,0 20 0 -
22.08.2019 01:00:00 24,9 10,4 3 2 6 4 NE 1016,0 12 0 0,0
22.08.2019 00:00:00 26,4 4,8 2 1 6 3 W 1015,4 20 0 0,0
21.08.2019 23:00:00 28,0 5,6 1 1 5 3 E 1014,9 19 0 0,0
21.08.2019 22:00:00 29,4 5,5 1 1 5 3 NE 1014,0 20 0 0,0
21.08.2019 21:00:00 31,7 5,3 3 2 6 4 SW 1013,4 20 34 0,0
21.08.2019 20:00:00 34,3 1,9 3 2 12 6 NNW 1013,1 20 60 -
21.08.2019 19:00:00 35,0 0,2 4 2 14 8 NNW 1013,1 20 60 0,0
21.08.2019 18:00:00 34,6 2,1 5 3 18 10 NNW 1013,5 20 60 0,0
21.08.2019 17:00:00 34,0 5,5 5 3 19 10 N 1014,0 20 60 0,0
21.08.2019 16:00:00 33,6 5,9 5 3 16 9 NNE 1014,7 20 60 0,0
21.08.2019 15:00:00 32,9 3,8 6 4 16 9 NNW 1015,2 20 60 0,0
21.08.2019 14:00:00 31,3 4,1 5 3 16 9 NE 1015,6 20 60 -
21.08.2019 13:00:00 - - - - - - - - - - -
21.08.2019 12:00:00 - - - - - - - - - - -
21.08.2019 11:00:00 - - - - - - - - - - -
21.08.2019 10:00:00 - - - - - - - - - - -
21.08.2019 09:00:00 - - - - - - - - - - -
21.08.2019 08:00:00 - - - - - - - - - - -
21.08.2019 07:00:00 - - - - - - - - - - -
21.08.2019 06:00:00 - - - - - - - - - - -
21.08.2019 05:00:00 - - - - - - - - - - -
21.08.2019 04:00:00 - - - - - - - - - - -
21.08.2019 03:00:00 - - - - - - - - - - -
21.08.2019 02:00:00 - - - - - - - - - - -
21.08.2019 01:00:00 - - - - - - - - - - -
21.08.2019 00:00:00 - - - - - - - - - - -
20.08.2019 23:00:00 - - - - - - - - - - -
20.08.2019 22:00:00 - - - - - - - - - - -
20.08.2019 21:00:00 - - - - - - - - - - -
20.08.2019 20:00:00 - - - - - - - - - - -
20.08.2019 19:00:00 - - - - - - - - - - -
20.08.2019 18:00:00 - - - - - - - - - - -
20.08.2019 17:00:00 - - - - - - - - - - -
20.08.2019 16:00:00 - - - - - - - - - - -
20.08.2019 15:00:00 - - - - - - - - - - -
20.08.2019 14:00:00 - - - - - - - - - - -
20.08.2019 13:00:00 - - - - - - - - - - -
20.08.2019 12:00:00 - - - - - - - - - - -
20.08.2019 11:00:00 - - - - - - - - - - -
20.08.2019 10:00:00 - - - - - - - - - - -
20.08.2019 09:00:00 - - - - - - - - - - -
20.08.2019 08:00:00 - - - - - - - - - - -
20.08.2019 07:00:00 - - - - - - - - - - -
20.08.2019 06:00:00 - - - - - - - - - - -
20.08.2019 05:00:00 - - - - - - - - - - -
20.08.2019 04:00:00 - - - - - - - - - - -
20.08.2019 03:00:00 - - - - - - - - - - -
20.08.2019 02:00:00 - - - - - - - - - - -
20.08.2019 01:00:00 22,9 6,2 10 5 21 12 WSW 1014,6 20 0 0,0
20.08.2019 00:00:00 23,7 5,6 4 2 13 7 WSW 1014,1 20 0 0,0
19.08.2019 23:00:00 25,8 2,5 6 3 16 9 W 1013,4 20 0 0,0
19.08.2019 22:00:00 26,8 1,3 7 4 18 10 W 1012,3 20 0 0,0
19.08.2019 21:00:00 29,5 0,2 6 3 25 13 W 1011,8 20 33 0,0
19.08.2019 20:00:00 31,7 0,9 10 5 29 15 WNW 1011,7 20 58 -
19.08.2019 19:00:00 33,2 -1,2 10 6 29 16 W 1011,9 20 60 0,0
19.08.2019 18:00:00 32,6 0,6 11 6 28 15 W 1012,3 20 60 0,0
19.08.2019 17:00:00 32,7 -4,5 12 7 26 14 WSW 1012,8 20 60 0,0
19.08.2019 16:00:00 31,6 0,9 9 5 25 14 W 1013,5 20 60 0,0
19.08.2019 15:00:00 30,3 3,4 10 6 27 15 W 1014,1 20 60 0,0
19.08.2019 14:00:00 28,5 7,1 9 5 21 11 WSW 1014,5 20 60 -
19.08.2019 13:00:00 26,1 9,4 9 5 22 12 W 1015,1 20 60 0,0
19.08.2019 12:00:00 23,8 10,8 9 5 20 11 W 1015,2 20 60 0,0
19.08.2019 11:00:00 21,8 12,1 7 4 16 8 W 1015,3 20 60 0,0
19.08.2019 10:00:00 - - - - - - - - - - -
19.08.2019 09:00:00 - - - - - - - - - - -
19.08.2019 08:00:00 - - - - - - - - - - -

tt = temperature
td = dewpoint
ff = wind speed
fx = gusts
dd = wind direction
ppp = reduced air pressure
vv = visibility
sd = sunshine duration
rr = precipitation

Next stations